Change the Weather History Date:

Tuesday, November 12, 2013

  Actual Average Record
Temperature  
Mean Temperature 38 °F -  
Max Temperature 50 °F 52 °F 70 °F (1931)
Min Temperature 27 °F 34 °F 19 °F (1957)
Degree Days  
Heating Degree Days 26    
Moisture  
Dew Point 22 °F    
Average Humidity 56    
Maximum Humidity 82    
Minimum Humidity 42    
Precipitation  
Precipitation 0.02 in - - ()
Sea Level Pressure  
Sea Level Pressure 30.15 in    
Wind  
Wind Speed 7 mph (NW)    
Max Wind Speed 17 mph    
Max Gust Speed 25 mph    
Visibility 10 miles    
Events Rain , Snow    
Averages and records for this station are not official NWS values.
T = Trace of Precipitation, MM = Missing Value Source: NWS Daily Summary

Daily Weather History Graph

Daily Weather History Graph

Search for Another Location

Airport or City:

Trip Planner

Search our weather history database for the weather conditions in past years. The results will help you decide how hot, cold, wet, or windy it might be!

Date:

Astronomy

Nov. 12, 2013 Rise Set
Actual Time 6:42 AM EST 4:43 PM EST
Civil Twilight 6:12 AM EST 5:12 PM EST
Nautical Twilight 5:39 AM EST 5:45 PM EST
Astronomical Twilight 5:07 AM EST 6:17 PM EST
Moon 1:57 PM EST (11/12) 1:27 AM EST (11/12)
Length of Visible Light 10h 59m
Length of Day
10h 01m
Waxing Gibbous, 76% of the Moon is Illuminated
Nov 12
Waxing Gibbous
Nov 17
Full
Nov 25
Last Quarter
Dec 2
New
Dec 9
First Quarter

Hourly Weather History & Observations

Time (EST) Temp. Windchill Dew Point Humidity Pressure Visibility Wind Dir Wind Speed Gust Speed Precip Events Conditions
12:53 AM 48.9 °F - 33.1 °F 54% 29.95 in 10.0 mi Calm Calm - N/A   Overcast
1:53 AM 48.9 °F - 34.0 °F 56% 29.94 in 10.0 mi Calm Calm - N/A   Overcast
2:53 AM 50.0 °F - 32.0 °F 50% 29.93 in 10.0 mi WNW 3.5 mph - N/A   Overcast
3:53 AM 50.0 °F - 30.9 °F 48% 29.95 in 10.0 mi WNW 4.6 mph - N/A   Overcast
4:53 AM 39.9 °F 31.8 °F 30.9 °F 70% 30.01 in 10.0 mi NNW 15.0 mph 25.3 mph 0.00 in Rain Light Rain
5:53 AM 37.9 °F 30.0 °F 30.0 °F 73% 30.05 in 9.0 mi NNW 12.7 mph - 0.00 in Rain Light Rain
6:23 AM 36.0 °F 29.0 °F 30.9 °F 82% 30.07 in 6.0 mi North 9.2 mph 20.7 mph 0.01 in Snow Light Snow
6:33 AM 36.0 °F 29.0 °F 30.0 °F 79% 30.07 in 5.0 mi NNW 9.2 mph 20.7 mph 0.02 in Snow Light Snow
6:53 AM 36.0 °F 28.5 °F 26.1 °F 67% 30.09 in 10.0 mi NNW 10.4 mph 19.6 mph 0.02 in   Overcast
8:53 AM 35.1 °F 27.4 °F 25.0 °F 67% 30.15 in 10.0 mi NNW 10.4 mph - N/A   Overcast
9:53 AM 36.0 °F 29.0 °F 21.9 °F 57% 30.16 in 10.0 mi NW 9.2 mph - N/A   Overcast
10:53 AM 37.0 °F 28.9 °F 21.0 °F 52% 30.17 in 10.0 mi NW 12.7 mph 19.6 mph N/A   Mostly Cloudy
11:53 AM 37.0 °F 28.9 °F 18.0 °F 46% 30.17 in 10.0 mi NNW 12.7 mph 25.3 mph N/A   Clear
12:53 PM 36.0 °F 26.0 °F 15.1 °F 43% 30.17 in 10.0 mi NNW 17.3 mph 21.9 mph N/A   Clear
1:53 PM 36.0 °F 26.7 °F 15.1 °F 43% 30.19 in 10.0 mi NNW 15.0 mph 23.0 mph N/A   Clear
2:53 PM 36.0 °F 28.0 °F 16.0 °F 44% 30.20 in 10.0 mi NW 11.5 mph 20.7 mph N/A   Clear
3:53 PM 37.0 °F 31.0 °F 16.0 °F 42% 30.22 in 10.0 mi NW 8.1 mph 17.3 mph N/A   Partly Cloudy
4:53 PM 36.0 °F 28.0 °F 16.0 °F 44% 30.24 in 10.0 mi NW 11.5 mph - N/A   Scattered Clouds
5:53 PM 34.0 °F 25.5 °F 15.1 °F 46% 30.27 in 10.0 mi NNW 11.5 mph 19.6 mph N/A   Clear
6:53 PM 33.1 °F 26.1 °F 15.1 °F 48% 30.29 in 10.0 mi NW 8.1 mph - N/A   Clear
7:53 PM 30.9 °F 22.2 °F 15.1 °F 52% 30.29 in 10.0 mi NW 10.4 mph - N/A   Clear
8:53 PM 30.0 °F 25.2 °F 15.1 °F 54% 30.30 in 10.0 mi NW 4.6 mph - N/A   Clear
9:53 PM 30.0 °F 25.2 °F 16.0 °F 56% 30.31 in 10.0 mi Variable 4.6 mph - N/A   Clear
10:53 PM 27.0 °F 23.0 °F 16.0 °F 63% 30.31 in 10.0 mi NW 3.5 mph - N/A   Clear
11:53 PM 27.0 °F 21.6 °F 16.0 °F 63% 30.32 in 10.0 mi NW 4.6 mph - N/A   Clear